"startDT [UTC]","vpos","CH4 [ppm]","stdev(CH4) [ppm]","CO2 [ppm]","stdev(CO2) [ppm]","H2O_reported [%]","stdev(H2O_reported)","CavityPressure [torr]","CavityTemp [C]","OutletValve","CH4_dry [ppm]","CO2_dry [ppm]","DasTemp [C]","EtalonTemp [C]","WarmBoxTemp [C]","MPVPosition","T_ECpre [C]","T_EC1 [C]","T_EC2 [C]","p_inlet [hPa]","p_in [hPa]","p_out [hPa]","T_inlet [C]","RH_inlet [%]","dwpt_inlet [C]","T_vent [C]","RH_vent [%]","dwpt_vent [C]","flow_vent [l min-1]","flow_inlet [l min-1]","dwpt_sample [C]","T_room [C]"
2015-09-17 00:00:00,0.0,1.95393,0.00043,390.402,0.057,0.7769,0.0018,140.000,45.000,31784.13540,1.96922,394.139,37.313,45.067,45.000,0.00,0.09,-272.74,-272.80,-9,516,-952,21.3,23.9,-0.1,21.5,24.2,0.2,5.73,1.87,-0.8,28.2
2015-09-17 00:01:00,0.0,1.95363,0.00052,390.383,0.028,0.7803,0.0021,140.000,45.000,31785.59543,1.96904,394.137,37.311,45.067,45.000,0.00,0.09,-272.75,-272.81,-10,516,-952,21.3,23.9,-0.1,21.5,24.3,0.2,5.73,1.84,-0.8,28.2
2015-09-17 00:02:00,0.0,1.95330,0.00043,390.388,0.044,0.7807,0.0018,140.001,45.000,31785.43226,1.96868,394.146,37.307,45.067,45.000,0.00,0.09,-272.75,-272.80,-10,516,-952,21.3,24.0,-0.1,21.5,24.3,0.3,5.73,2.04,-0.8,28.2
2015-09-17 00:03:00,0.0,1.95354,0.00041,390.344,0.042,0.7833,0.0016,139.998,45.000,31784.56181,1.96896,394.112,37.313,45.067,45.000,0.00,0.09,-272.74,-272.80,-9,516,-952,21.3,24.0,-0.1,21.5,24.4,0.3,5.73,2.12,-0.8,28.2
2015-09-17 00:04:00,0.0,1.95351,0.00046,390.269,0.050,0.7850,0.0034,140.000,45.000,31785.45851,1.96902,394.048,37.313,45.067,45.000,0.00,0.09,-272.74,-272.80,-8,516,-952,21.3,24.1,-0.0,21.5,24.4,0.4,5.73,1.95,-0.8,28.2
2015-09-17 00:05:00,0.0,1.95366,0.00041,390.189,0.068,0.7894,0.0020,140.002,45.000,31784.22774,1.96920,393.988,37.309,45.067,45.000,0.00,0.09,-272.75,-272.81,-9,516,-952,21.3,24.2,0.0,21.5,24.6,0.4,5.73,1.81,-0.8,28.2
2015-09-17 00:06:00,0.0,1.95387,0.00063,390.269,0.079,0.7942,0.0018,140.001,45.000,31784.45137,1.96955,394.087,37.310,45.067,45.000,0.00,0.09,-272.74,-272.79,-9,516,-952,21.3,24.3,0.1,21.5,24.7,0.5,5.73,1.95,-0.8,28.2
2015-09-17 00:07:00,0.0,1.95388,0.00057,390.343,0.035,0.7894,0.0023,140.000,45.000,31787.07354,1.96939,394.144,37.308,45.067,45.000,0.00,0.09,-272.74,-272.80,-10,516,-952,21.3,24.2,0.0,21.5,24.6,0.4,5.73,2.13,-0.8,28.2
2015-09-17 00:08:00,0.0,1.95331,0.00046,390.309,0.055,0.7910,0.0022,139.999,45.000,31785.62291,1.96895,394.115,37.305,45.067,45.000,0.00,0.09,-272.75,-272.81,-10,516,-952,21.3,24.2,0.1,21.5,24.6,0.5,5.73,2.02,-0.8,28.2
2015-09-17 00:09:00,0.0,1.95275,0.00044,390.384,0.045,0.7857,0.0026,140.001,45.000,31787.04666,1.96822,394.166,37.301,45.067,45.000,0.00,0.09,-272.74,-272.81,-9,516,-952,21.3,24.1,-0.0,21.5,24.5,0.4,5.73,1.82,-0.8,28.2
2015-09-17 00:10:00,0.0,1.95295,0.00038,390.369,0.025,0.7838,0.0020,140.001,45.000,31787.52358,1.96839,394.142,37.309,45.067,45.000,0.00,0.09,-272.73,-272.80,-9,516,-952,21.3,24.0,-0.1,21.5,24.4,0.3,5.73,1.89,-0.8,28.2
2015-09-17 00:11:00,0.0,1.95267,0.00045,390.329,0.040,0.7856,0.0014,140.000,45.000,31786.84266,1.96816,394.109,37.298,45.067,45.000,0.00,0.09,-272.74,-272.80,-9,516,-952,21.3,24.1,0.0,21.5,24.5,0.4,5.73,2.10,-0.7,28.2
2015-09-17 00:12:00,0.0,1.95284,0.00043,390.365,0.030,0.7852,0.0020,139.999,45.000,31787.97478,1.96830,394.144,37.293,45.067,45.000,0.00,0.09,-272.75,-272.81,-10,516,-952,21.3,24.1,-0.1,21.6,24.5,0.4,5.73,2.08,-0.8,28.2
2015-09-17 00:13:00,0.0,1.95336,0.00050,390.377,0.051,0.7856,0.0018,140.000,45.000,31785.26891,1.96887,394.161,37.291,45.067,45.000,0.00,0.09,-272.73,-272.80,-10,516,-952,21.3,24.1,-0.0,21.5,24.5,0.4,5.73,1.86,-0.7,28.2
2015-09-17 00:14:00,0.0,1.95323,0.00039,390.312,0.046,0.7899,0.0018,140.001,45.000,31784.69713,1.96875,394.111,37.312,45.067,45.000,0.00,0.09,-272.74,-272.80,-9,516,-952,21.3,24.2,0.1,21.5,24.6,0.4,5.73,1.84,-0.8,28.2
2015-09-17 00:15:00,0.0,1.95332,0.00033,390.278,0.037,0.7931,0.0031,139.999,45.000,31785.56691,1.96896,394.096,37.291,45.067,45.000,0.00,0.09,-272.75,-272.80,-9,516,-952,21.4,24.3,0.1,21.5,24.7,0.5,5.73,2.05,-0.8,28.2
2015-09-17 00:16:00,0.0,1.95246,0.00041,390.179,0.036,0.7985,0.0027,139.999,45.000,31787.74070,1.96820,394.022,37.300,45.067,45.000,0.00,0.09,-272.74,-272.80,-9,516,-952,21.3,24.5,0.2,21.5,24.8,0.6,5.73,2.12,-0.7,28.2
2015-09-17 00:17:00,0.0,1.95309,0.00050,390.213,0.047,0.7997,0.0019,139.997,45.000,31786.50336,1.96883,394.061,37.281,45.067,45.000,0.00,0.09,-272.74,-272.80,-9,516,-952,21.3,24.5,0.2,21.6,24.9,0.6,5.73,1.92,-0.8,28.2
2015-09-17 00:18:00,0.0,1.95313,0.00040,390.225,0.053,0.7993,0.0016,140.003,45.000,31786.07856,1.96890,394.071,37.261,45.067,45.000,0.00,0.09,-272.74,-272.81,-10,516,-952,21.4,24.5,0.3,21.6,24.9,0.6,5.73,1.81,-0.8,28.2
2015-09-17 00:19:00,0.0,1.95379,0.00051,390.216,0.095,0.7992,0.0018,140.001,45.000,31784.93982,1.96957,394.067,37.251,45.067,45.000,0.00,0.09,-272.75,-272.80,-10,516,-952,21.3,24.5,0.2,21.6,24.8,0.6,5.73,1.99,-0.7,28.2
2015-09-17 00:20:00,0.0,1.95318,0.00039,390.134,0.059,0.8072,0.0021,140.001,45.000,31785.75027,1.96909,394.017,37.261,45.067,45.000,0.00,0.09,-272.74,-272.79,-9,516,-952,21.4,24.7,0.4,21.6,25.0,0.7,5.73,2.13,-0.8,28.2
2015-09-17 00:21:00,0.0,1.95294,0.00026,390.241,0.035,0.8002,0.0026,140.003,45.000,31788.81483,1.96869,394.093,37.252,45.067,45.000,0.00,0.09,-272.74,-272.80,-9,516,-952,21.4,24.5,0.3,21.5,25.0,0.7,5.73,1.96,-0.8,28.2
2015-09-17 00:22:00,0.0,1.95324,0.00056,390.203,0.039,0.7993,0.0021,140.002,45.000,31788.06501,1.96898,394.050,37.250,45.067,45.000,0.00,0.09,-272.74,-272.81,-9,516,-952,21.4,24.5,0.3,21.6,24.8,0.6,5.73,1.81,-0.8,28.1
2015-09-17 00:23:00,0.0,1.95317,0.00045,390.180,0.052,0.8006,0.0025,140.001,45.000,31788.84916,1.96895,394.031,37.250,45.067,45.000,0.00,0.09,-272.74,-272.81,-9,516,-952,21.5,24.5,0.3,21.6,24.9,0.6,5.73,1.95,-0.8,28.1
2015-09-17 00:24:00,0.0,1.95333,0.00036,390.211,0.065,0.7987,0.0023,139.999,45.000,31788.53639,1.96907,394.056,37.244,45.067,45.000,0.00,0.09,-272.74,-272.80,-10,516,-952,21.5,24.4,0.3,21.6,24.8,0.6,5.73,2.12,-0.8,28.2
2015-09-17 00:25:00,0.0,1.95408,0.00048,390.201,0.034,0.8006,0.0019,140.001,45.000,31788.81870,1.96983,394.056,37.223,45.067,45.000,0.00,0.09,-272.74,-272.81,-10,516,-952,21.5,24.5,0.3,21.6,24.8,0.6,5.73,2.04,-0.7,28.2
2015-09-17 00:26:00,0.0,1.95455,0.00048,390.209,0.032,0.8012,0.0015,140.001,45.000,31788.12630,1.97035,394.064,37.203,45.067,45.000,0.00,0.09,-272.74,-272.80,-9,516,-952,21.4,24.5,0.3,21.6,24.8,0.6,5.73,1.84,-0.7,28.2
2015-09-17 00:27:00,0.0,1.95426,0.00038,390.164,0.041,0.8035,0.0026,140.001,45.000,31789.07829,1.97015,394.032,37.236,45.067,45.000,0.00,0.10,-272.74,-272.80,-9,516,-952,21.5,24.6,0.4,21.6,24.9,0.7,5.73,1.86,-0.7,28.2
2015-09-17 00:28:00,0.0,1.95334,0.00036,390.155,0.040,0.8061,0.0024,140.000,45.000,31788.79914,1.96924,394.034,37.246,45.067,45.000,0.00,0.09,-272.75,-272.80,-9,516,-952,21.5,24.6,0.4,21.7,25.0,0.7,5.73,2.07,-0.7,28.2
2015-09-17 00:29:00,0.0,1.95343,0.00030,390.199,0.041,0.8067,0.0020,139.999,45.000,31788.33882,1.96933,394.083,37.252,45.067,45.000,0.00,0.09,-272.74,-272.81,-9,516,-952,21.4,24.6,0.4,21.7,25.0,0.8,5.73,2.10,-0.7,28.3
2015-09-17 00:30:00,0.0,1.95411,0.00031,390.212,0.033,0.8089,0.0018,140.001,45.000,31788.13514,1.97004,394.105,37.252,45.067,45.000,0.00,0.09,-272.73,-272.80,-10,516,-952,21.4,24.8,0.5,21.6,25.1,0.8,5.73,1.91,-0.7,28.2
2015-09-17 00:31:00,0.0,1.95353,0.00039,390.198,0.031,0.8090,0.0022,140.001,45.000,31787.48734,1.96953,394.094,37.254,45.067,45.000,0.00,0.09,-272.74,-272.80,-10,516,-952,21.4,24.7,0.4,21.6,25.1,0.8,5.73,1.82,-0.7,28.3
2015-09-17 00:32:00,0.0,1.95361,0.00042,390.187,0.029,0.8085,0.0021,140.002,45.000,31787.71731,1.96955,394.080,37.259,45.067,45.000,0.00,0.09,-272.75,-272.80,-9,516,-952,21.4,24.7,0.4,21.6,25.1,0.8,5.73,1.99,-0.7,28.2
2015-09-17 00:33:00,0.0,1.95390,0.00038,390.211,0.027,0.8081,0.0021,140.002,45.000,31788.14242,1.96981,394.100,37.253,45.067,45.000,0.00,0.09,-272.74,-272.80,-9,516,-952,21.4,24.7,0.4,21.6,25.0,0.7,5.73,2.13,-0.7,28.2
2015-09-17 00:34:00,0.0,1.95426,0.00045,390.203,0.033,0.8092,0.0018,139.998,45.000,31787.78448,1.97025,394.099,37.252,45.067,45.000,0.00,0.09,-272.74,-272.80,-9,516,-951,21.4,24.7,0.4,21.6,25.1,0.8,5.73,1.97,-0.7,28.2
2015-09-17 00:35:00,0.0,1.95388,0.00035,390.142,0.031,0.8126,0.0024,140.001,45.000,31789.57213,1.96989,394.055,37.253,45.067,45.000,0.00,0.09,-272.74,-272.81,-10,516,-952,21.4,24.8,0.4,21.6,25.1,0.8,5.73,1.81,-0.7,28.3
2015-09-17 00:36:00,0.0,1.95382,0.00033,390.129,0.044,0.8171,0.0028,140.002,45.000,31790.21740,1.96995,394.064,37.251,45.067,45.000,0.00,0.10,-272.74,-272.80,-10,516,-952,21.4,25.0,0.5,21.6,25.3,0.9,5.73,1.93,-0.7,28.2
2015-09-17 00:37:00,0.0,1.95352,0.00040,390.038,0.044,0.8213,0.0020,139.998,45.000,31789.90653,1.96971,393.993,37.251,45.067,45.000,0.00,0.09,-272.74,-272.80,-10,516,-952,21.4,25.1,0.6,21.6,25.5,1.0,5.73,2.12,-0.7,28.3
2015-09-17 00:38:00,0.0,1.95383,0.00034,390.067,0.038,0.8220,0.0025,139.999,45.000,31788.29436,1.97006,394.026,37.250,45.067,45.000,0.00,0.09,-272.74,-272.81,-9,516,-952,21.4,25.2,0.6,21.6,25.5,1.0,5.73,2.03,-0.7,28.3
2015-09-17 00:39:00,0.0,1.95395,0.00033,390.078,0.033,0.8237,0.0019,140.003,45.000,31788.21761,1.97019,394.042,37.250,45.067,45.000,0.00,0.09,-272.74,-272.81,-9,516,-952,21.4,25.2,0.7,21.6,25.6,1.0,5.73,1.84,-0.7,28.3
2015-09-17 00:40:00,0.0,1.95411,0.00032,390.079,0.052,0.8265,0.0020,140.001,45.000,31788.57700,1.97042,394.060,37.249,45.067,45.000,0.00,0.09,-272.74,-272.80,-9,516,-952,21.4,25.3,0.7,21.6,25.7,1.1,5.73,1.87,-0.7,28.3
2015-09-17 00:41:00,0.0,1.95409,0.00033,390.041,0.033,0.8290,0.0019,140.001,45.000,31788.30176,1.97046,394.032,37.251,45.067,45.000,0.00,0.09,-272.74,-272.79,-10,516,-952,21.3,25.4,0.7,21.6,25.8,1.1,5.73,2.09,-0.7,28.3
2015-09-17 00:42:00,0.0,1.95402,0.00035,390.059,0.034,0.8304,0.0026,140.000,45.000,31786.49466,1.97044,394.059,37.271,45.067,45.000,0.00,0.09,-272.75,-272.81,-10,516,-952,21.4,25.4,0.8,21.6,25.8,1.1,5.73,2.08,-0.8,28.3
2015-09-17 00:43:00,0.0,1.95412,0.00030,390.057,0.030,0.8263,0.0020,140.001,45.000,31788.52757,1.97041,394.037,37.294,45.067,45.000,0.00,0.09,-272.74,-272.80,-9,516,-952,21.4,25.3,0.7,21.6,25.7,1.1,5.73,1.87,-0.7,28.3
2015-09-17 00:44:00,0.0,1.95426,0.00033,390.047,0.030,0.8275,0.0025,140.000,45.000,31787.69505,1.97059,394.032,37.311,45.067,45.000,0.00,0.09,-272.74,-272.80,-9,516,-952,21.4,25.3,0.7,21.6,25.7,1.1,5.73,1.83,-0.7,28.3
2015-09-17 00:45:00,0.0,1.95385,0.00023,389.981,0.045,0.8303,0.0015,140.001,45.000,31787.85193,1.97026,393.979,37.306,45.067,45.000,0.00,0.09,-272.75,-272.80,-9,516,-952,21.4,25.4,0.8,21.6,25.8,1.1,5.73,2.03,-0.7,28.3
2015-09-17 00:46:00,0.0,1.95356,0.00038,389.910,0.042,0.8348,0.0021,140.001,45.000,31788.04563,1.97006,393.929,37.303,45.067,45.000,0.00,0.09,-272.75,-272.80,-9,516,-952,21.4,25.6,0.9,21.6,25.9,1.2,5.73,2.12,-0.7,28.3
2015-09-17 00:47:00,0.0,1.95378,0.00026,389.895,0.036,0.8376,0.0024,140.002,45.000,31788.92935,1.97030,393.928,37.274,45.067,45.000,0.00,0.09,-272.74,-272.80,-10,516,-952,21.4,25.7,0.9,21.6,26.0,1.3,5.73,1.93,-0.7,28.3
2015-09-17 00:48:00,0.0,1.95398,0.00040,389.927,0.043,0.8395,0.0019,140.000,45.000,31788.83806,1.97051,393.971,37.279,45.067,45.000,0.00,0.09,-272.74,-272.81,-10,516,-952,21.4,25.7,0.9,21.6,26.1,1.3,5.73,1.80,-0.7,28.3
2015-09-17 00:49:00,0.0,1.95388,0.00048,389.884,0.045,0.8382,0.0026,139.999,45.000,31790.16556,1.97046,393.922,37.286,45.067,45.000,0.00,0.09,-272.74,-272.80,-9,516,-952,21.4,25.7,0.9,21.6,26.1,1.3,5.73,1.98,-0.7,28.3
2015-09-17 00:50:00,0.0,1.95466,0.00091,389.874,0.130,0.8371,0.0030,140.001,45.000,31789.01983,1.97112,393.900,37.276,45.067,45.000,0.00,0.09,-272.73,-272.80,-9,516,-951,21.4,25.6,0.9,21.6,26.0,1.3,5.73,2.13,-0.7,28.3
2015-09-17 00:51:00,0.0,1.95575,0.00061,389.970,0.101,0.8322,0.0036,140.000,45.000,31790.26698,1.97225,393.981,37.259,45.067,45.000,0.00,0.09,-272.73,-272.80,-9,516,-952,21.4,25.5,0.8,21.6,25.9,1.2,5.73,1.99,-0.7,28.2
2015-09-17 00:52:00,0.0,1.95559,0.00047,389.971,0.120,0.8386,0.0044,140.002,45.000,31788.57248,1.97210,394.006,37.256,45.067,45.000,0.00,0.09,-272.75,-272.81,-10,516,-952,21.4,25.6,0.9,21.6,26.1,1.3,5.73,1.81,-0.7,28.3
2015-09-17 00:53:00,0.0,1.95618,0.00077,389.946,0.101,0.8359,0.0041,140.000,45.000,31788.29467,1.97272,393.976,37.285,45.067,45.000,0.00,0.09,-272.75,-272.80,-10,516,-951,21.4,25.6,0.9,21.6,26.0,1.2,5.73,1.92,-0.7,28.2
2015-09-17 00:54:00,0.0,1.95565,0.00037,390.002,0.046,0.8369,0.0039,139.998,45.000,31786.60869,1.97222,394.031,37.290,45.067,45.000,0.00,0.09,-272.74,-272.79,-10,516,-951,21.4,25.6,0.9,21.6,26.1,1.3,5.73,2.12,-0.7,28.2
2015-09-17 00:55:00,0.0,1.95529,0.00045,390.018,0.091,0.8310,0.0033,140.002,45.000,31787.93601,1.97171,394.018,37.306,45.067,45.000,0.00,0.09,-272.75,-272.81,-9,516,-951,21.4,25.4,0.8,21.6,25.9,1.2,5.73,2.04,-0.7,28.3
2015-09-17 00:56:00,0.0,1.95561,0.00047,390.044,0.074,0.8282,0.0031,139.999,45.000,31787.04549,1.97196,394.033,37.310,45.067,45.000,0.00,0.09,-272.74,-272.81,-9,516,-951,21.4,25.3,0.7,21.6,25.7,1.1,5.73,1.82,-0.7,28.2
2015-09-17 00:57:00,0.0,1.95684,0.00056,390.079,0.049,0.8335,0.0018,140.000,45.000,31785.79804,1.97327,394.092,37.312,45.067,45.000,0.00,0.09,-272.74,-272.80,-9,516,-951,21.4,25.5,0.8,21.6,25.9,1.2,5.73,1.88,-0.7,28.3
2015-09-17 00:58:00,0.0,1.95671,0.00060,390.061,0.052,0.8381,0.0022,140.003,45.000,31785.76677,1.97330,394.100,37.314,45.067,45.000,0.00,0.09,-272.75,-272.80,-10,516,-951,21.4,25.7,0.9,21.6,26.0,1.3,5.73,2.10,-0.7,28.2
2015-09-17 00:59:00,0.0,1.95637,0.00037,389.954,0.061,0.8425,0.0018,139.999,45.000,31785.90542,1.97303,394.014,37.341,45.067,45.000,0.00,0.09,-272.75,-272.81,-10,516,-951,21.4,25.7,0.9,21.6,26.2,1.4,5.73,2.07,-0.7,28.3
2015-09-17 01:00:00,0.0,1.95704,0.00076,389.914,0.076,0.8435,0.0020,140.001,45.000,31786.18338,1.97367,393.974,37.319,45.067,45.000,0.00,0.09,-272.74,-272.80,-9,516,-951,21.4,25.9,1.0,21.6,26.3,1.4,5.73,1.85,-0.7,28.2
2015-09-17 01:01:00,0.0,1.95701,0.00056,390.049,0.031,0.8377,0.0022,140.000,45.000,31786.37980,1.97362,394.086,37.313,45.067,45.000,0.00,0.09,-272.73,-272.79,-9,516,-951,21.4,25.6,0.9,21.6,26.1,1.3,5.73,1.85,-0.7,28.3
2015-09-17 01:02:00,0.0,1.95686,0.00055,390.010,0.053,0.8384,0.0026,140.001,45.000,31785.59383,1.97343,394.049,37.311,45.067,45.000,0.00,0.09,-272.75,-272.81,-9,516,-951,21.4,25.7,0.9,21.6,26.1,1.3,5.73,2.08,-0.7,28.3
2015-09-17 01:03:00,0.0,1.95687,0.00034,389.929,0.035,0.8408,0.0023,140.000,45.000,31785.08994,1.97349,393.978,37.312,45.067,45.000,0.00,0.09,-272.74,-272.81,-10,516,-951,21.4,25.8,0.9,21.6,26.2,1.3,5.73,2.09,-0.7,28.3
2015-09-17 01:04:00,0.0,1.95668,0.00041,389.985,0.057,0.8390,0.0025,140.003,45.000,31786.44812,1.97329,394.026,37.313,45.067,45.000,0.00,0.09,-272.73,-272.80,-10,516,-951,21.3,25.7,0.9,21.6,26.2,1.3,5.73,1.88,-0.7,28.3
2015-09-17 01:05:00,0.0,1.95669,0.00039,390.047,0.034,0.8346,0.0023,140.002,45.000,31786.53278,1.97321,394.067,37.313,45.067,45.000,0.00,0.09,-272.74,-272.80,-10,516,-951,21.3,25.5,0.8,21.6,26.0,1.2,5.73,1.83,-0.7,28.3
2015-09-17 01:06:00,0.0,1.95678,0.00029,390.027,0.038,0.8385,0.0021,139.999,45.000,31786.44262,1.97333,394.066,37.314,45.067,45.000,0.00,0.09,-272.75,-272.80,-9,516,-951,21.4,25.7,0.9,21.6,26.1,1.4,5.73,2.04,-0.7,28.3
2015-09-17 01:07:00,0.0,1.95682,0.00045,390.057,0.029,0.8387,0.0026,140.000,45.000,31784.89862,1.97339,394.098,37.313,45.067,45.000,0.00,0.09,-272.74,-272.80,-9,516,-951,21.4,25.6,0.9,21.6,26.1,1.3,5.73,2.12,-0.7,28.3
2015-09-17 01:08:00,0.0,1.95630,0.00031,390.029,0.036,0.8394,0.0019,140.000,45.000,31785.69820,1.97294,394.075,37.314,45.067,45.000,0.00,0.09,-272.74,-272.80,-9,516,-951,21.4,25.7,0.9,21.6,26.2,1.3,5.73,1.91,-0.7,28.3
2015-09-17 01:09:00,0.0,1.95636,0.00040,389.993,0.069,0.8418,0.0020,139.998,45.000,31787.04711,1.97299,394.047,37.315,45.067,45.000,0.00,0.09,-272.74,-272.81,-10,516,-951,21.4,25.8,1.0,21.6,26.2,1.3,5.73,1.81,-0.7,28.3
2015-09-17 01:10:00,0.0,1.95651,0.00034,389.977,0.046,0.8414,0.0027,139.999,45.000,31788.31935,1.97315,394.031,37.318,45.067,45.000,0.00,0.09,-272.74,-272.80,-10,516,-951,21.4,25.8,0.9,21.6,26.2,1.4,5.73,2.01,-0.7,28.2
2015-09-17 01:11:00,0.0,1.95612,0.00036,389.957,0.041,0.8469,0.0012,140.001,45.000,31787.45261,1.97285,394.036,37.315,45.067,45.000,0.00,0.09,-272.74,-272.80,-9,516,-951,21.4,26.0,1.1,21.6,26.3,1.4,5.73,2.13,-0.7,28.2
2015-09-17 01:12:00,0.0,1.95622,0.00036,389.975,0.031,0.8482,0.0015,140.002,45.000,31789.99950,1.97303,394.062,37.313,45.067,45.000,0.00,0.09,-272.74,-272.81,-9,516,-951,21.4,26.0,1.1,21.6,26.4,1.5,5.73,1.93,-0.7,28.3
2015-09-17 01:13:00,0.0,1.95628,0.00036,389.992,0.032,0.8491,0.0020,139.999,45.000,31788.19033,1.97305,394.082,37.302,45.067,45.000,0.00,0.09,-272.74,-272.80,-9,516,-951,21.4,26.1,1.1,21.6,26.4,1.5,5.73,1.80,-0.7,28.3
2015-09-17 01:14:00,0.0,1.95611,0.00037,389.992,0.038,0.8540,0.0015,139.998,45.000,31786.73800,1.97298,394.107,37.310,45.067,45.000,0.00,0.09,-272.74,-272.79,-10,516,-951,21.4,26.2,1.2,21.6,26.6,1.6,5.73,2.00,-0.7,28.3
2015-09-17 01:15:00,0.0,1.95607,0.00032,390.011,0.021,0.8483,0.0022,140.001,45.000,31788.92652,1.97287,394.099,37.312,45.067,45.000,0.00,0.09,-272.74,-272.80,-10,516,-951,21.4,26.0,1.1,21.6,26.5,1.5,5.73,2.13,-0.7,28.2
2015-09-17 01:16:00,0.0,1.95610,0.00044,390.044,0.037,0.8452,0.0028,140.000,45.000,31788.95710,1.97282,394.116,37.306,45.067,45.000,0.00,0.09,-272.74,-272.81,-9,516,-951,21.4,25.9,1.0,21.6,26.3,1.4,5.73,1.95,-0.7,28.3
2015-09-17 01:17:00,0.0,1.95608,0.00039,390.028,0.042,0.8415,0.0031,139.999,45.000,31787.25708,1.97271,394.083,37.312,45.067,45.000,0.00,0.09,-272.73,-272.80,-9,516,-951,21.4,25.8,1.0,21.6,26.2,1.3,5.73,1.81,-0.7,28.3
2015-09-17 01:18:00,0.0,1.95608,0.00040,389.990,0.035,0.8471,0.0019,139.998,45.000,31786.50958,1.97285,394.072,37.310,45.067,45.000,0.00,0.09,-272.74,-272.80,-9,516,-951,21.4,26.0,1.1,21.6,26.3,1.4,5.73,1.97,-0.7,28.3
2015-09-17 01:19:00,0.0,1.95614,0.00046,390.026,0.026,0.8453,0.0026,139.998,45.000,31785.41285,1.97281,394.097,37.313,45.067,45.000,0.00,0.09,-272.75,-272.81,-9,516,-951,21.4,25.8,1.0,21.6,26.3,1.4,5.73,2.13,-0.7,28.2
2015-09-17 01:20:00,0.0,1.95656,0.00031,390.015,0.032,0.8435,0.0020,140.003,45.000,31786.18749,1.97327,394.080,37.315,45.067,45.000,0.00,0.09,-272.74,-272.80,-10,516,-951,21.4,25.8,1.0,21.6,26.3,1.4,5.73,1.98,-0.7,28.3
2015-09-17 01:21:00,0.0,1.95641,0.00040,389.980,0.029,0.8451,0.0023,139.999,45.000,31787.71273,1.97313,394.051,37.315,45.067,45.000,0.00,0.09,-272.74,-272.80,-10,516,-951,21.4,25.9,1.0,21.6,26.2,1.4,5.73,1.80,-0.7,28.2
2015-09-17 01:22:00,0.0,1.95635,0.00040,389.864,0.044,0.8531,0.0032,139.995,45.000,31783.80776,1.97322,393.975,37.322,45.067,45.000,0.00,0.09,-272.75,-272.80,-9,516,-951,21.4,26.1,1.2,21.6,26.5,1.5,5.73,1.96,-0.7,28.3
2015-09-17 01:23:00,0.0,1.95627,0.00031,389.905,0.043,0.8537,0.0034,140.000,45.000,31786.55668,1.97317,394.019,37.331,45.067,45.000,0.00,0.09,-272.75,-272.81,-9,516,-951,21.4,26.1,1.1,21.6,26.6,1.6,5.73,2.13,-0.7,28.2
2015-09-17 01:24:00,0.0,1.95576,0.00047,389.847,0.054,0.8569,0.0034,139.999,45.000,31786.67292,1.97271,393.973,37.358,45.067,45.000,0.00,0.09,-272.74,-272.80,-9,516,-951,21.4,26.3,1.3,21.6,26.6,1.6,5.73,1.98,-0.7,28.3
2015-09-17 01:25:00,0.0,1.95602,0.00053,389.873,0.068,0.8581,0.0030,140.000,45.000,31787.18570,1.97296,394.006,37.362,45.067,45.000,0.00,0.09,-272.74,-272.80,-10,516,-951,21.4,26.3,1.3,21.6,26.7,1.7,5.73,1.80,-0.7,28.3
2015-09-17 01:26:00,0.0,1.95557,0.00050,389.844,0.083,0.8595,0.0054,139.999,45.000,31787.58368,1.97261,393.985,37.364,45.067,45.000,0.00,0.09,-272.75,-272.80,-10,516,-951,21.4,26.4,1.3,21.6,26.7,1.6,5.73,1.95,-0.7,28.3
2015-09-17 01:27:00,0.0,1.95510,0.00037,389.864,0.060,0.8656,0.0031,140.000,45.000,31789.92867,1.97221,394.037,37.358,45.067,45.000,0.00,0.09,-272.74,-272.80,-9,516,-951,21.4,26.6,1.4,21.6,26.9,1.7,5.73,2.14,-0.7,28.3
2015-09-17 01:28:00,0.0,1.95530,0.00036,389.814,0.048,0.8709,0.0023,139.999,45.000,31787.80277,1.97251,394.011,37.334,45.067,45.000,0.00,0.09,-272.73,-272.80,-9,516,-951,21.4,26.7,1.5,21.6,27.1,1.9,5.73,1.98,-0.7,28.3
2015-09-17 01:29:00,0.0,1.95625,0.00081,390.172,0.224,0.8616,0.0095,140.001,45.000,31788.74475,1.97329,394.323,37.336,45.067,45.000,0.00,0.09,-272.74,-272.81,-9,516,-951,21.4,26.4,1.3,21.6,27.0,1.8,5.73,1.80,-0.7,28.3
2015-09-17 01:30:00,0.0,1.95664,0.00036,390.288,0.031,0.8475,0.0017,140.001,45.000,31788.16525,1.97338,394.374,37.316,45.067,45.000,0.00,0.09,-272.75,-272.80,-10,516,-951,21.4,25.9,1.1,21.6,26.4,1.5,5.73,1.95,-0.7,28.3
2015-09-17 01:31:00,0.0,1.95639,0.00038,390.261,0.061,0.8518,0.0027,139.999,45.000,31787.34827,1.97323,394.368,37.312,45.067,45.000,0.00,0.09,-272.73,-272.80,-10,516,-951,21.4,26.1,1.2,21.6,26.5,1.5,5.73,2.13,-0.7,28.3
2015-09-17 01:32:00,0.0,1.95668,0.00038,390.352,0.039,0.8517,0.0021,140.001,45.000,31788.13646,1.97356,394.461,37.305,45.067,45.000,0.00,0.09,-272.73,-272.80,-9,517,-951,21.4,26.1,1.2,21.6,26.5,1.5,5.73,1.97,-0.7,28.3
2015-09-17 01:33:00,0.0,1.95630,0.00042,390.282,0.041,0.8506,0.0017,139.998,45.000,31789.52116,1.97313,394.384,37.306,45.067,45.000,0.00,0.09,-272.74,-272.81,-9,516,-951,21.5,26.1,1.2,21.6,26.5,1.5,5.73,1.79,-0.7,28.3
2015-09-17 01:34:00,0.0,1.95616,0.00052,390.165,0.063,0.8548,0.0026,140.000,45.000,31787.30294,1.97309,394.289,37.293,45.067,45.001,0.00,0.09,-272.74,-272.80,-9,516,-951,21.4,26.2,1.2,21.6,26.5,1.6,5.73,1.98,-0.7,28.3
2015-09-17 01:35:00,0.0,1.95577,0.00036,390.087,0.040,0.8605,0.0022,140.000,45.000,31789.00985,1.97277,394.237,37.300,45.067,45.000,0.00,0.09,-272.74,-272.80,-10,516,-951,21.4,26.3,1.3,21.6,26.7,1.6,5.73,2.13,-0.7,28.3
2015-09-17 01:36:00,0.0,1.95548,0.00038,390.060,0.068,0.8621,0.0027,139.999,45.000,31790.60431,1.97254,394.216,37.310,45.067,45.000,0.00,0.09,-272.75,-272.81,-10,516,-951,21.4,26.4,1.3,21.6,26.8,1.7,5.73,1.95,-0.7,28.3
2015-09-17 01:37:00,0.0,1.95537,0.00044,389.989,0.054,0.8724,0.0028,139.999,45.000,31790.93118,1.97261,394.192,37.313,45.067,45.000,0.00,0.09,-272.74,-272.80,-10,517,-951,21.4,26.7,1.5,21.6,27.1,1.8,5.73,1.80,-0.7,28.3
2015-09-17 01:38:00,0.0,1.95599,0.00054,390.194,0.073,0.8698,0.0035,139.997,45.000,31789.38080,1.97317,394.391,37.318,45.067,45.000,0.00,0.09,-272.74,-272.79,-9,516,-951,21.4,26.7,1.5,21.7,27.1,1.9,5.73,1.97,-0.7,28.3
2015-09-17 01:39:00,0.0,1.95595,0.00034,390.184,0.059,0.8687,0.0020,140.003,45.000,31791.47473,1.97315,394.373,37.335,45.067,45.000,0.00,0.09,-272.74,-272.81,-9,516,-951,21.4,26.6,1.4,21.6,27.0,1.8,5.73,2.13,-0.7,28.3
2015-09-17 01:40:00,0.0,1.95576,0.00059,390.152,0.136,0.8687,0.0028,140.000,45.000,31793.36424,1.97294,394.340,37.346,45.067,45.000,0.00,0.09,-272.74,-272.81,-9,516,-951,21.4,26.6,1.4,21.7,27.0,1.8,5.73,1.96,-0.7,28.3
2015-09-17 01:41:00,0.0,1.95664,0.00047,390.409,0.113,0.8599,0.0033,140.001,45.000,31793.10543,1.97368,394.564,37.363,45.067,45.000,0.00,0.09,-272.73,-272.79,-10,516,-951,21.4,26.3,1.3,21.6,26.8,1.7,5.73,1.80,-0.7,28.3
2015-09-17 01:42:00,0.0,1.95641,0.00052,390.281,0.120,0.8626,0.0028,140.000,45.000,31792.90866,1.97344,394.440,37.368,45.067,45.000,0.00,0.09,-272.74,-272.79,-10,517,-951,21.4,26.4,1.3,21.7,26.8,1.8,5.73,1.97,-0.7,28.3
2015-09-17 01:43:00,0.0,1.95690,0.00036,390.486,0.048,0.8554,0.0025,140.000,45.000,31792.06069,1.97383,394.615,37.373,45.066,45.000,0.00,0.09,-272.75,-272.81,-9,516,-951,21.4,26.1,1.2,21.6,26.7,1.6,5.73,2.13,-0.7,28.3
2015-09-17 01:44:00,0.0,1.95635,0.00037,390.329,0.061,0.8580,0.0045,139.998,45.000,31790.59476,1.97336,394.471,37.375,45.067,45.000,0.00,0.09,-272.74,-272.80,-9,516,-951,21.4,26.3,1.3,21.6,26.6,1.6,5.73,1.96,-0.7,28.3
2015-09-17 01:45:00,0.0,1.95626,0.00041,390.299,0.085,0.8639,0.0031,140.002,45.000,31792.49007,1.97331,394.465,37.378,45.067,45.000,0.00,0.10,-272.74,-272.80,-9,516,-951,21.4,26.4,1.3,21.7,26.8,1.8,5.73,1.79,-0.7,28.3
2015-09-17 01:46:00,0.0,1.95634,0.00036,390.316,0.051,0.8634,0.0031,139.999,45.000,31791.39255,1.97344,394.481,37.375,45.067,45.000,0.00,0.09,-272.75,-272.80,-10,516,-951,21.4,26.4,1.3,21.7,26.8,1.7,5.73,1.98,-0.7,28.4